Theta_e
329 323 317 313 313 310 309 302 294 293 286 285 283 283 288 293 291 292 293 293 294 296 296 300 297 298 298 295 298 303 305 291 293 287 290 295 311 322 324 328 337 342 346 348 345 345 344 345 351 351 351 351 351 350 350 349 349 350 351 351 350 350 350 349 349 349 349 349 349 349 348 349 348 348 348 347 346 344 345 344 343 340 338 337 338 340 341 341 341 341 340 340 339 339 340 341 342
323 318 314 314 313 311 305 297 289 283 284 284 286 286 290 291 293 291 292 293 294 298 299 304 305 306 306 306 306 303 303 307 308 295 310 314 320 320 325 334 342 343 346 348 347 345 345 345 347 351 351 351 351 350 350 349 349 349 349 349 349 349 349 349 348 348 348 348 349 349 348 349 349 347 347 347 346 345 344 343 342 340 338 338 338 339 340 340 340 340 340 339 339 339 340 340 341
318 315 313 311 310 306 301 297 293 281 283 282 283 286 290 293 291 290 293 295 296 298 297 297 297 297 299 301 301 297 298 309 313 312 315 317 320 322 324 337 340 345 347 349 348 345 345 344 344 350 352 351 351 351 350 349 349 349 349 349 349 349 349 349 348 348 348 348 348 348 348 348 348 348 347 346 346 346 344 343 342 340 339 338 338 338 339 340 339 339 339 338 339 338 339 339 340
314 316 312 308 307 299 295 289 285 284 284 280 283 289 291 290 291 292 293 294 295 295 296 297 298 300 300 299 300 301 299 305 315 313 312 315 316 319 325 333 340 346 348 349 349 347 344 344 346 350 351 351 351 351 350 349 349 349 349 349 349 348 348 348 348 348 348 348 348 348 348 348 348 348 347 346 345 344 343 342 341 340 340 337 336 338 339 339 339 339 338 338 338 337 337 339 339
314 317 310 306 302 302 291 288 283 281 283 282 285 285 289 289 292 291 295 293 292 293 295 295 297 300 301 300 300 297 300 304 303 314 314 314 318 323 325 329 343 346 347 349 349 347 343 343 345 348 351 350 351 350 350 349 349 349 350 350 349 348 348 347 347 347 347 347 348 347 347 348 348 347 346 344 344 343 342 341 340 339 338 337 336 336 336 337 338 338 338 338 337 337 336 338 339
310 311 311 308 302 301 293 289 288 285 285 285 286 288 288 291 292 291 295 293 293 293 294 296 296 297 304 308 306 306 312 302 308 315 315 319 325 326 327 328 342 345 347 349 349 346 343 342 344 347 351 351 351 350 350 349 349 349 349 349 349 348 348 347 347 347 346 346 347 347 346 347 347 346 345 344 343 342 342 340 339 338 337 336 335 335 335 336 336 337 337 337 336 336 336 338 339
311 304 303 302 300 297 291 284 285 283 292 288 288 289 292 291 292 291 294 294 295 297 296 300 301 301 300 305 303 313 314 315 316 318 318 322 324 326 328 333 341 343 346 348 348 345 341 342 347 348 349 347 351 350 350 349 349 349 348 348 348 348 348 347 346 346 346 346 346 347 347 346 346 345 344 343 342 342 341 340 339 337 336 335 334 334 334 335 335 335 336 336 336 335 337 337 338
311 306 301 295 291 288 286 285 286 284 290 289 290 291 291 292 290 291 291 293 293 295 299 301 295 294 297 303 299 311 307 315 317 319 321 322 324 327 328 338 339 341 345 347 347 345 343 341 346 348 346 350 351 351 350 349 349 349 349 348 348 348 347 347 346 346 346 346 346 346 347 346 345 344 344 343 342 341 341 340 339 337 335 335 333 332 332 334 333 333 334 335 334 335 336 337 337
306 303 298 295 288 286 283 286 288 287 289 290 291 291 302 291 290 291 292 292 294 293 296 296 294 295 296 299 301 304 304 306 306 319 323 324 325 327 332 337 338 338 343 345 346 346 345 339 344 347 345 349 350 350 350 349 349 349 349 348 348 348 347 347 346 347 346 346 346 346 345 345 344 344 344 343 342 341 341 339 338 338 335 333 332 331 331 331 331 331 333 334 334 334 335 335 336
302 300 294 292 287 287 282 286 285 289 290 291 291 295 293 292 291 292 292 293 294 294 295 295 293 295 296 298 296 300 303 303 305 321 324 325 325 328 332 334 336 338 340 343 345 346 345 344 340 344 346 347 348 349 349 350 349 348 348 348 348 348 347 347 346 346 346 346 346 346 345 344 344 343 343 343 342 341 340 339 339 337 335 332 330 329 329 329 329 329 332 333 333 333 333 333 335
296 294 295 288 284 282 285 285 283 288 292 290 291 291 291 291 291 291 292 293 293 295 295 296 298 295 294 294 294 300 300 299 315 319 321 325 327 328 330 334 338 337 341 343 345 346 346 345 340 339 342 343 345 346 347 347 349 349 349 349 348 348 348 347 347 346 346 346 345 345 344 344 344 344 343 342 341 340 339 338 337 336 334 331 328 328 328 327 327 329 331 331 331 331 331 331 333
295 292 289 284 284 284 283 286 288 288 288 290 294 294 293 292 292 293 292 294 295 294 294 295 297 294 294 292 295 299 298 304 303 306 314 327 328 328 331 334 338 342 343 344 345 345 346 344 343 340 338 340 340 343 345 345 347 347 348 348 348 348 348 347 347 346 346 345 345 344 344 344 343 343 343 342 340 339 339 338 337 336 333 329 326 326 325 325 326 328 328 328 328 329 329 329 329
292 291 287 287 288 285 284 286 287 291 287 289 292 296 292 294 294 292 292 291 291 294 295 295 296 295 293 293 294 296 303 303 304 306 323 326 326 327 329 330 331 331 334 340 342 342 343 344 343 342 339 335 336 337 339 342 341 345 347 346 346 347 347 347 347 346 346 345 345 345 344 343 342 343 342 341 340 339 338 337 336 335 332 328 325 324 324 324 325 326 325 325 325 326 326 326 326
291 290 287 289 283 285 285 286 285 288 287 289 290 292 293 295 294 291 293 293 292 293 296 296 297 294 294 293 295 295 294 301 300 317 321 324 324 321 320 321 321 321 321 323 325 328 328 333 341 343 342 341 342 335 332 337 339 343 343 343 343 344 345 346 345 344 345 344 343 341 340 339 339 341 341 341 340 338 337 337 335 334 331 327 325 323 322 322 323 323 322 322 323 323 323 323 323
297 291 285 283 283 286 285 286 289 285 288 289 296 294 295 295 292 292 292 291 295 295 296 298 297 296 292 293 291 294 297 302 305 318 318 314 314 314 315 317 318 319 319 319 319 319 320 322 326 335 341 343 340 339 339 336 335 338 338 338 340 341 342 340 341 342 340 339 339 337 336 334 333 334 335 336 336 335 333 332 334 333 331 328 327 326 323 320 320 319 319 320 320 321 321 320 321
295 290 286 286 286 285 288 288 285 286 289 290 294 292 293 295 294 295 294 295 295 297 296 297 297 295 295 294 293 295 299 302 311 317 312 310 312 313 314 315 316 316 317 317 317 317 318 321 323 325 331 338 340 340 339 337 333 331 334 335 335 338 338 338 339 338 333 332 331 331 329 330 329 330 327 331 330 333 331 331 333 333 330 328 327 326 323 321 319 319 318 319 319 320 321 320 319
294 289 286 281 286 286 288 287 287 288 287 290 291 294 294 294 296 295 297 295 296 296 295 296 297 297 295 297 298 299 304 307 317 312 309 308 308 310 312 313 314 315 316 316 315 315 317 319 320 323 322 324 326 337 340 339 338 330 331 327 328 331 334 332 334 328 325 323 325 324 325 331 330 330 331 331 324 330 323 325 330 332 330 328 326 325 324 322 320 318 318 320 320 318 316 316 317
293 287 282 285 282 285 287 288 289 288 291 292 293 291 292 293 295 297 295 296 294 294 294 294 298 298 297 299 300 302 306 317 314 310 306 304 303 305 308 309 311 311 311 312 314 314 314 317 318 319 319 321 321 328 340 340 337 333 337 335 331 329 328 327 329 332 329 329 323 327 333 329 330 332 332 329 330 328 326 323 325 330 331 330 328 326 327 326 322 320 321 322 321 318 313 304 305
288 284 281 284 284 290 289 288 291 291 292 291 291 290 292 293 293 295 295 292 293 294 294 294 296 299 301 301 301 304 307 311 309 306 304 303 303 304 303 305 308 310 311 311 312 313 314 314 317 318 318 319 320 321 334 340 338 337 338 337 333 328 327 330 332 331 332 330 330 333 331 331 331 332 332 330 329 324 326 322 325 328 330 329 328 329 328 326 325 324 323 322 319 315 307 305 304
290 285 286 283 287 290 289 290 291 291 293 292 293 292 292 295 295 295 295 291 292 292 292 294 294 296 298 300 301 301 305 304 304 304 303 302 301 302 302 303 304 306 308 309 310 312 313 313 316 317 318 318 319 319 325 339 338 338 339 338 336 333 330 331 333 333 332 331 331 333 333 332 331 333 327 324 325 328 325 322 322 323 324 323 322 322 324 324 323 322 321 317 313 309 307 306 306
291 286 282 291 288 291 294 290 292 291 292 291 291 292 293 293 293 295 290 293 291 290 292 295 295 295 298 299 299 300 302 303 302 302 302 301 301 301 302 302 303 304 303 304 307 309 311 314 315 317 318 318 318 318 319 329 339 338 340 338 337 334 333 333 332 333 333 332 332 333 334 332 331 332 330 329 330 329 328 327 326 324 322 320 319 316 314 314 312 310 310 310 308 308 308 307 307
287 290 288 288 288 293 295 292 292 290 290 291 290 293 294 294 294 290 292 291 289 292 292 294 294 298 299 299 299 299 300 301 301 301 302 302 302 302 303 302 303 301 302 303 304 306 309 312 314 316 317 318 319 318 318 321 328 337 337 338 337 335 334 334 334 334 332 332 333 333 333 333 332 331 330 329 329 329 328 327 326 324 321 320 318 316 313 313 311 310 310 309 307 307 307 306 306
291 291 289 288 288 293 293 292 292 289 292 290 291 293 293 294 294 290 291 293 290 291 292 293 294 299 300 300 299 299 299 300 300 300 300 300 300 300 301 302 302 304 302 303 303 304 308 310 313 315 316 318 319 318 319 323 326 336 337 337 336 334 333 331 330 330 330 329 331 332 333 333 332 331 330 329 328 328 327 326 325 322 321 319 318 316 314 312 311 310 309 308 307 307 307 306 306
288 291 290 295 290 294 292 295 291 289 292 291 290 293 294 291 294 291 291 290 291 293 294 294 297 299 300 299 299 300 299 299 299 299 299 301 301 301 301 302 302 302 303 304 305 306 308 309 310 312 315 317 319 319 326 326 329 332 334 330 330 327 328 327 326 327 327 326 327 328 330 331 332 330 330 328 327 327 326 325 324 323 323 322 319 318 315 312 311 309 309 308 308 307 308 307 307
292 293 292 293 292 292 293 291 289 289 290 292 292 293 294 291 292 292 292 291 295 294 295 297 297 298 298 298 298 298 298 297 299 298 299 299 298 300 298 299 301 303 304 307 308 307 309 311 311 310 313 315 319 326 326 326 327 326 326 327 324 322 325 324 324 324 324 323 323 324 325 329 328 329 328 327 328 326 325 325 324 325 325 324 323 319 316 313 311 310 309 308 308 308 307 306 305
292 294 292 292 294 292 292 292 291 290 293 291 293 292 291 290 292 293 292 294 293 294 296 296 297 297 296 298 298 298 298 298 297 298 299 297 297 298 298 299 301 303 306 307 305 307 311 312 312 315 319 320 324 325 324 323 322 321 321 321 321 319 320 321 321 320 320 320 320 320 321 322 325 328 327 327 326 325 323 322 321 321 322 323 322 319 317 314 312 311 309 310 310 308 307 305 304
292 292 292 293 293 292 294 294 293 291 293 291 293 291 293 291 293 292 293 293 293 295 294 294 296 296 296 297 297 297 298 298 298 297 296 296 296 297 298 300 300 303 304 306 308 310 311 310 312 316 318 316 321 322 321 320 319 318 317 318 318 317 316 316 317 317 317 318 318 319 319 320 320 321 321 322 321 320 319 319 317 318 318 319 319 317 315 313 311 309 308 307 307 307 306 305 303
293 293 293 293 290 291 291 291 291 292 295 290 292 290 290 291 292 292 292 293 294 294 293 293 293 294 295 295 296 296 297 297 296 296 297 295 296 296 297 301 303 302 301 302 308 310 311 311 312 315 316 315 319 319 318 317 316 316 316 316 315 314 313 313 312 312 312 314 315 316 316 317 318 318 319 318 318 317 315 315 314 314 313 313 313 312 310 308 307 307 306 306 305 304 303 304 303
293 293 294 291 289 293 292 292 292 292 294 291 292 293 291 290 290 290 290 293 293 293 293 292 292 293 293 293 295 295 296 295 295 295 296 297 296 296 300 302 303 302 303 304 308 309 309 311 311 313 315 315 317 315 314 314 314 314 313 312 312 312 311 310 310 309 309 310 311 312 313 314 314 315 314 314 313 313 312 311 311 310 310 310 309 309 309 306 305 303 303 303 303 303 302 302 302
294 291 290 291 287 288 292 292 291 292 294 290 293 287 286 288 294 290 293 293 292 292 291 292 292 292 292 292 294 294 294 294 295 296 295 295 296 297 301 302 301 299 301 306 308 308 309 310 311 311 312 312 312 312 311 310 309 309 309 309 309 309 309 308 308 308 307 307 308 309 310 311 312 312 312 311 312 311 310 309 308 307 307 305 305 305 302 303 302 302 303 303 302 302 301 301 299
292 291 287 285 286 284 291 290 290 292 292 290 294 287 288 289 288 288 291 293 293 293 292 292 292 292 292 292 293 294 294 294 295 295 295 295 295 296 301 303 302 301 302 306 306 307 308 308 310 309 310 310 310 309 309 307 307 307 307 306 306 306 305 305 306 308 307 306 307 307 308 308 309 310 311 310 309 309 308 306 306 304 303 302 301 300 300 300 301 301 302 300 300 299 300 299 298
287 288 285 280 285 282 287 291 291 293 292 291 293 285 290 293 292 289 292 292 292 293 292 292 291 292 292 292 293 294 294 294 294 294 295 295 295 297 301 303 303 302 304 305 305 307 306 307 308 308 308 307 306 306 305 305 305 305 305 305 305 305 306 304 304 305 305 305 305 305 306 306 307 308 309 309 308 307 306 304 303 302 299 298 297 297 297 296 296 296 297 299 298 298 298 297 296
282 287 282 284 284 283 288 291 289 291 291 292 292 289 286 290 288 289 291 292 291 291 291 291 291 292 292 293 293 293 294 293 293 293 293 295 295 298 301 303 304 305 305 305 305 306 305 306 307 306 306 305 304 304 304 303 303 303 303 301 302 303 304 303 302 302 303 303 303 303 303 303 303 304 305 305 305 303 302 301 299 298 297 295 294 294 294 295 295 294 293 294 298 297 296 295 293
283 283 286 281 285 284 286 288 290 290 291 289 290 288 289 291 287 290 291 292 290 291 291 291 292 292 293 293 293 293 293 294 293 293 293 294 298 300 301 303 304 305 305 305 306 305 304 305 305 305 304 304 303 303 302 301 300 300 300 300 299 298 298 298 298 298 299 299 300 299 300 300 299 300 300 300 299 299 299 298 297 297 296 294 293 292 292 292 293 293 292 292 295 296 294 293 291
280 285 285 286 285 285 287 286 291 290 290 289 288 287 290 293 291 289 291 291 291 292 292 292 291 292 292 292 293 293 293 293 293 293 293 295 298 300 301 303 304 304 304 304 304 304 304 303 303 303 303 302 301 301 300 300 298 298 298 299 298 297 296 296 296 296 296 296 296 297 297 296 297 297 298 298 297 296 296 296 295 295 294 293 292 291 291 290 290 291 291 289 290 290 291 290 290
284 285 284 282 286 285 286 289 288 291 287 287 286 288 290 292 293 292 289 291 290 292 291 290 291 291 292 292 293 293 293 293 293 293 293 295 298 300 301 302 303 303 304 304 304 304 303 303 302 302 302 300 300 299 298 297 298 297 295 296 296 295 294 294 294 294 294 294 295 295 295 295 295 295 295 296 295 294 294 293 293 293 292 292 291 290 289 289 289 290 289 290 289 288 288 288 288
287 285 284 284 285 286 287 287 288 288 289 287 289 289 289 291 292 293 289 289 289 290 291 291 291 291 292 292 293 293 293 293 292 292 293 295 297 299 300 302 303 301 301 303 303 303 302 302 301 300 301 300 299 299 299 297 296 297 295 293 293 293 292 292 292 293 293 293 293 294 294 294 294 294 294 294 293 293 292 292 292 291 291 290 289 287 287 287 287 288 287 289 289 288 286 285 284
290 287 285 286 284 286 289 290 289 288 289 284 285 286 288 289 291 292 289 288 290 291 291 291 292 292 292 293 292 293 293 290 290 291 292 292 296 299 300 302 302 300 300 302 302 302 302 302 301 300 301 301 300 300 299 297 296 295 293 291 291 291 291 291 290 291 291 292 292 292 292 292 292 292 293 293 292 291 291 291 291 290 290 289 288 288 286 287 286 286 288 286 284 284 282 283 284
287 287 285 285 286 285 289 289 289 289 288 287 287 287 289 290 291 291 290 290 292 293 293 294 293 293 292 292 293 292 291 291 291 292 292 294 296 299 300 301 301 300 301 302 302 302 302 302 301 301 301 301 300 299 298 295 294 294 292 291 291 289 290 290 290 290 290 290 290 290 290 290 291 290 291 291 291 290 290 289 289 289 288 288 287 286 285 284 284 284 285 286 284 283 283 284 283
286 285 285 286 284 286 285 285 287 290 289 285 284 285 288 290 290 291 293 292 292 292 292 293 294 294 293 293 293 293 292 291 290 291 292 294 297 299 300 301 300 300 300 299 300 301 301 300 301 300 299 299 297 296 295 293 292 292 291 291 290 289 288 289 289 289 289 289 288 288 289 289 289 289 289 289 289 288 288 287 287 286 285 285 285 284 283 283 283 283 283 284 284 282 280 282 283
284 287 285 284 286 286 288 286 287 286 288 286 287 287 289 290 291 292 293 291 291 292 291 291 292 293 294 292 292 293 293 292 291 291 292 294 296 299 299 300 300 299 299 298 298 299 299 298 298 298 297 297 296 294 293 293 291 290 290 289 289 288 289 288 287 287 287 288 287 287 287 287 288 287 287 287 287 286 286 285 285 285 284 284 285 284 283 283 282 282 282 282 281 283 280 280 282
285 286 289 289 288 288 286 285 288 283 283 284 286 282 280 283 288 290 291 287 289 290 290 292 293 292 291 291 292 292 293 293 292 292 292 294 297 299 299 299 299 299 298 297 298 298 297 297 297 296 296 295 294 293 294 293 291 289 289 288 287 287 286 286 286 285 285 285 284 285 285 285 285 285 285 285 285 285 284 284 284 284 284 284 284 283 283 283 282 282 282 282 281 281 282 280 279
285 286 288 290 289 287 286 286 287 280 280 285 285 283 282 283 287 288 287 287 290 291 289 292 293 292 290 292 292 291 292 291 292 292 292 294 297 298 298 299 299 298 298 297 296 297 297 296 296 296 295 294 293 292 293 293 291 291 291 290 289 288 286 285 284 284 284 283 284 283 283 283 283 284 284 284 284 284 284 284 284 284 283 283 284 283 283 282 282 282 282 282 282 283 281 280 280
284 285 284 288 287 286 286 285 286 282 281 284 284 280 282 285 288 290 292 290 290 290 293 293 292 291 290 291 291 291 292 292 292 292 292 294 298 298 298 299 299 298 297 295 295 296 295 296 296 296 294 294 292 292 291 291 290 291 290 289 288 287 286 284 283 283 283 283 283 282 282 282 282 283 283 283 283 284 284 283 283 283 283 283 283 282 282 282 282 282 282 281 281 281 281 281 278
285 287 286 286 288 286 286 286 282 283 282 281 283 285 283 282 284 286 288 287 289 292 294 296 295 291 290 290 290 291 292 292 292 292 292 293 297 298 299 299 299 297 295 293 293 295 295 295 295 294 293 292 292 291 291 290 290 290 289 287 285 285 284 284 284 284 283 283 282 281 282 282 282 282 282 282 282 283 284 283 283 282 282 282 282 282 281 281 281 281 281 281 281 280 281 280 280
287 286 287 286 284 282 281 281 285 281 279 280 282 284 280 285 283 286 285 287 289 292 295 296 293 291 290 290 290 290 291 291 292 292 292 293 296 299 299 299 298 296 295 293 293 294 294 294 293 292 291 292 291 291 290 289 289 289 288 287 285 284 284 283 283 282 281 281 281 281 281 281 281 281 281 281 282 282 282 282 282 282 282 282 282 281 281 281 281 280 280 280 280 280 279 279 278
289 287 288 286 283 280 279 280 279 280 277 283 283 285 285 283 283 286 288 288 290 293 292 292 287 286 288 289 290 290 290 291 291 291 292 293 295 298 299 298 296 295 295 294 293 293 294 293 292 291 291 292 291 290 289 288 287 287 287 286 285 283 283 282 281 281 281 281 281 280 280 280 280 281 281 281 281 281 281 282 281 281 281 282 281 281 280 280 280 280 279 279 279 279 279 279 279
290 286 282 285 284 279 278 275 276 275 277 282 284 285 286 281 281 283 288 287 286 290 291 292 289 288 288 288 289 290 290 290 291 291 290 290 292 296 297 296 294 294 294 293 293 293 293 292 292 291 290 291 290 289 288 287 287 286 285 285 284 284 283 282 282 281 281 281 280 280 280 280 280 280 280 280 280 280 281 281 281 281 280 280 280 280 280 280 279 279 279 279 278 278 278 278 277
287 286 288 282 274 273 275 271 276 274 279 281 279 283 282 284 289 285 287 291 291 289 291 292 291 289 288 288 288 289 290 289 290 290 290 290 292 294 295 295 293 293 293 293 292 292 292 291 291 290 289 289 288 287 286 286 285 284 284 284 284 284 283 282 282 281 281 281 281 280 280 280 280 280 279 280 279 280 280 280 280 280 280 280 280 280 279 279 279 279 279 278 278 278 277 278 277
286 288 284 281 273 273 269 267 266 271 276 279 281 283 283 282 287 291 294 296 295 291 290 290 290 291 290 288 288 289 289 289 290 290 290 290 292 293 295 294 293 293 293 293 292 291 291 290 290 290 288 287 286 285 285 284 284 284 284 284 284 284 283 282 282 282 281 281 281 281 281 281 280 280 280 280 279 280 279 280 280 279 279 279 279 279 279 279 279 279 278 278 277 277 277 277 276
289 287 290 286 280 272 270 271 275 277 276 276 279 279 277 279 285 285 292 288 283 283 285 286 286 287 287 286 287 288 288 288 289 289 290 290 291 293 294 294 293 292 292 292 291 291 291 290 290 289 287 286 285 285 284 283 283 283 283 283 283 283 282 282 282 282 281 281 281 281 280 280 280 280 280 279 279 279 279 279 279 279 279 279 279 279 279 278 278 278 278 277 277 277 276 277 276
285 284 285 281 284 280 281 274 272 271 272 272 275 281 280 285 285 287 285 285 287 286 285 285 286 285 285 286 287 288 288 289 289 289 289 289 291 291 293 293 293 292 291 291 291 290 290 289 289 288 287 285 284 284 283 283 283 282 282 282 282 282 282 282 282 282 281 281 280 280 280 279 280 279 279 279 279 279 279 279 279 279 279 279 278 278 278 278 278 278 277 277 277 278 276 276 275
285 286 285 286 284 286 277 274 274 274 272 279 275 280 283 284 290 291 293 288 289 287 287 285 286 284 284 286 287 287 288 288 288 289 289 289 289 290 292 293 293 292 291 290 290 290 290 289 288 287 286 284 283 284 283 283 282 282 282 282 281 281 281 281 281 281 280 280 280 279 279 279 279 279 279 279 279 278 278 278 278 278 278 278 277 277 277 277 277 277 277 276 276 276 276 275 275
286 281 285 286 286 285 283 278 271 269 274 277 278 281 282 280 283 282 285 287 290 290 291 288 283 282 284 286 287 287 288 288 288 288 288 289 289 290 290 292 293 292 291 290 290 290 290 289 287 286 285 283 283 283 283 283 282 282 282 281 281 282 281 281 281 280 280 280 279 279 279 279 279 279 279 279 278 278 278 278 277 277 277 277 277 276 276 276 276 276 276 276 276 276 276 275 275
287 284 288 289 281 279 280 276 275 269 272 275 276 278 282 284 285 284 286 286 289 291 292 288 288 285 285 285 286 286 286 287 287 287 288 288 288 289 289 290 290 291 292 291 291 290 289 289 287 286 285 284 284 284 283 283 283 283 283 282 281 281 281 281 280 280 280 280 279 279 279 279 279 279 279 278 278 277 277 277 277 276 276 276 276 276 275 276 276 276 276 275 275 275 275 275 275
287 289 288 285 283 278 278 282 275 277 272 268 279 276 283 284 285 286 289 288 289 290 287 289 290 290 287 286 286 287 287 287 287 287 288 288 288 288 289 289 289 289 290 290 290 289 288 288 287 286 285 284 283 283 283 283 283 283 282 282 281 281 281 280 280 280 280 280 279 279 279 278 279 279 278 278 277 277 277 276 276 276 276 276 276 276 275 275 275 275 275 274 274 274 274 274 274
285 285 283 286 281 284 281 280 278 277 270 270 274 279 282 284 287 288 291 290 291 291 291 291 291 289 287 287 287 287 287 288 288 288 287 287 287 288 288 288 289 288 289 289 288 288 288 288 287 285 284 283 283 283 283 283 283 282 282 281 281 281 280 280 280 280 280 279 279 279 279 279 278 278 278 277 277 277 276 276 276 276 276 276 276 275 275 275 275 274 274 273 273 273 273 273 273
290 289 286 288 284 281 278 280 280 275 277 277 269 280 286 284 285 290 290 290 291 289 288 291 290 287 286 287 287 287 288 288 288 288 287 287 287 287 287 287 287 287 287 287 287 288 288 287 287 285 284 284 283 283 283 283 282 282 282 281 281 280 280 280 280 279 279 279 279 279 278 278 278 277 277 277 277 277 276 276 277 276 276 276 277 276 275 275 274 274 273 273 273 273 273 272 272
Wind_Speed
7 5 4 3 2 1 2 6 1 2 4 1 0 1 1 0 1 1 0 3 2 2 2 2 3 2 1 2 8 5 1 2 2 3 1 1 2 4 2 2 2 4 5 4 4 4 3 4 6 8 10 11 10 10 10 10 10 11 10 11 11 11 12 12 12 12 12 12 13 13 14 15 15 15 15 15 15 15 15 14 14 14 14 14 15 15 15 15 15 15 15 15 14 14 14 14 14
5 4 3 1 0 1 1 2 4 2 6 3 0 1 1 3 1 3 1 1 1 2 1 9 9 11 11 10 6 3 4 1 2 1 2 3 5 2 3 3 6 8 5 4 3 4 4 3 4 9 10 11 10 10 9 9 9 10 11 11 11 11 11 11 12 12 12 12 12 13 13 14 14 14 15 15 15 15 14 14 14 13 14 14 14 14 14 14 14 15 15 15 15 14 14 14 14
3 5 2 3 2 3 2 4 1 1 5 1 2 4 2 0 3 3 2 3 4 6 2 5 5 4 1 1 5 3 1 1 0 0 1 3 1 3 5 0 3 7 8 4 4 3 4 5 8 7 11 10 10 9 9 9 9 9 10 10 11 11 11 11 11 12 11 11 11 12 13 14 14 14 14 15 15 15 14 13 13 12 13 13 13 13 13 13 14 14 14 15 15 14 15 15 15
1 2 1 3 2 3 1 4 5 7 4 5 0 2 1 3 5 4 3 2 1 1 1 1 3 2 2 8 1 1 2 1 0 1 0 1 0 3 5 1 3 3 5 4 4 3 3 6 8 7 9 10 10 9 7 7 8 9 8 9 10 10 10 10 10 11 11 11 11 12 12 14 14 14 15 15 14 14 13 12 12 12 12 13 13 13 13 13 13 14 14 14 15 14 15 15 16
0 1 1 2 4 1 3 1 5 3 2 4 5 4 3 4 4 3 1 1 1 4 1 1 3 2 1 4 1 1 1 3 3 2 1 3 2 3 3 1 3 5 6 5 5 3 3 7 7 7 9 10 10 9 8 6 7 7 6 7 9 9 9 9 10 10 11 11 11 12 12 13 14 14 14 14 13 12 12 12 12 12 12 12 13 13 13 13 13 14 14 14 14 14 14 15 16
3 1 3 1 0 2 6 2 2 1 3 5 3 3 4 5 4 4 0 2 1 2 2 2 3 3 2 1 1 1 1 1 1 2 0 1 6 5 2 1 3 6 6 5 4 3 3 8 7 5 9 9 10 9 8 7 6 6 6 8 9 8 8 9 9 9 10 10 11 11 12 13 14 14 14 14 12 12 12 12 12 12 12 12 12 13 13 13 13 13 14 14 14 14 15 15 16
2 3 4 4 3 5 3 4 3 2 1 6 3 3 7 4 6 3 1 2 1 5 1 2 4 4 4 0 1 0 1 3 1 1 0 5 6 5 0 4 4 4 4 5 5 3 3 7 8 8 8 8 9 8 8 7 7 8 8 9 8 8 8 8 9 9 9 10 11 11 11 12 13 14 14 12 11 11 11 12 12 12 12 12 12 13 13 13 13 13 14 14 14 14 14 15 16
2 2 2 3 1 4 3 1 2 3 0 4 1 4 5 5 3 1 1 3 1 1 2 3 1 4 0 3 1 1 4 1 2 4 5 3 3 4 1 5 5 3 4 3 4 3 5 8 7 8 6 7 7 8 8 8 7 8 8 10 9 8 9 9 9 9 9 9 10 11 12 12 13 13 12 11 11 11 11 12 12 12 12 12 12 13 13 13 14 14 14 14 14 14 13 15 15
4 6 0 6 4 3 3 2 0 2 3 1 3 4 2 3 3 2 2 0 0 1 2 1 1 2 2 2 1 2 3 4 3 4 3 5 5 4 2 4 5 3 3 3 3 3 4 6 8 9 9 6 7 8 8 8 7 7 7 8 9 8 8 8 9 8 10 10 10 11 11 12 12 12 12 12 11 11 11 11 12 12 12 12 12 13 13 14 14 15 14 14 15 14 15 15 15
2 2 1 3 4 4 2 1 4 2 1 2 2 1 2 3 2 0 4 3 1 1 1 0 1 1 2 3 1 2 1 5 5 3 6 5 5 3 3 3 4 6 3 3 3 3 3 5 7 8 10 8 9 9 8 6 7 7 8 8 8 8 7 7 8 9 10 10 11 11 11 11 11 11 12 11 11 11 11 11 11 12 13 13 13 13 14 14 15 15 15 15 15 15 16 16 16
1 6 3 4 5 3 2 3 2 1 1 3 3 4 4 2 4 2 1 3 0 2 2 2 4 3 3 1 2 3 3 4 3 1 4 5 5 5 3 3 3 3 6 4 3 3 4 3 6 6 7 7 6 8 7 6 6 6 7 7 7 6 7 7 6 9 9 10 10 11 11 11 11 11 12 12 11 11 11 11 12 13 13 13 13 14 14 15 15 15 16 15 15 16 17 17 17
1 1 2 4 3 7 5 5 1 3 4 2 1 2 1 4 4 3 2 6 1 1 1 2 3 5 3 1 1 0 5 2 1 2 3 4 5 5 4 4 5 4 3 4 4 3 4 4 3 4 5 5 7 5 8 6 6 5 6 6 7 6 7 7 7 10 10 10 10 10 10 10 11 11 11 12 12 11 11 11 12 13 13 14 14 14 14 15 15 15 15 15 16 16 17 17 17
4 1 6 6 1 1 3 3 4 0 1 3 3 0 1 3 4 6 3 4 1 4 1 2 4 2 1 1 2 3 1 0 1 1 2 4 4 4 5 6 6 8 7 4 5 4 4 3 3 2 3 6 5 6 4 5 6 5 6 7 6 6 6 7 8 8 8 10 10 10 9 9 8 9 12 12 11 11 11 11 12 13 13 14 14 14 14 14 15 15 15 16 15 16 17 17 17
4 5 4 2 1 4 6 3 1 4 3 4 2 1 0 1 1 5 8 4 1 1 0 3 2 2 1 1 1 2 3 2 1 2 3 5 4 6 7 6 7 8 8 8 6 5 7 6 2 2 3 4 3 4 5 5 5 4 4 4 7 6 7 8 8 8 8 8 8 8 10 8 6 8 11 11 11 10 10 10 12 13 13 13 14 14 14 14 15 15 15 15 15 16 16 17 17
1 2 6 5 2 2 1 6 9 5 5 2 1 0 1 2 4 2 3 6 1 1 4 2 1 0 4 6 4 5 4 1 2 2 4 5 6 6 6 5 6 6 7 7 6 9 8 7 6 6 5 4 2 3 4 4 6 4 6 6 4 6 8 8 9 8 8 7 7 8 9 9 7 10 10 11 11 9 8 9 11 12 13 13 13 14 14 14 14 15 15 15 15 16 16 16 16
4 6 4 3 2 4 3 1 2 3 5 4 1 1 4 1 0 2 2 1 2 1 1 1 4 0 1 5 2 5 4 1 4 4 5 6 5 6 6 6 6 6 7 6 7 8 7 6 6 6 4 2 2 2 2 3 5 6 7 6 6 4 7 9 10 9 8 9 8 7 8 7 8 8 12 9 10 9 8 7 9 11 12 12 13 13 13 13 14 14 14 15 15 15 15 15 15
2 4 3 4 2 3 3 3 5 4 3 3 2 1 2 1 0 1 0 2 6 1 3 0 1 1 0 0 0 1 1 3 5 5 6 5 5 4 4 4 4 4 5 6 6 6 5 5 6 3 4 5 4 2 3 3 3 6 6 6 7 4 3 5 9 9 8 7 7 7 7 6 5 6 8 7 8 6 8 9 9 11 12 11 12 12 12 12 13 14 14 14 14 14 13 14 14
2 2 6 2 2 3 4 5 9 1 3 4 3 3 5 1 0 1 1 8 3 2 4 3 3 3 0 1 1 1 2 8 5 7 5 4 2 3 4 3 3 3 4 5 5 4 4 4 5 5 4 4 3 3 0 3 2 3 4 3 2 3 4 4 4 7 6 4 7 7 5 5 5 6 6 7 6 6 7 10 10 10 10 9 10 11 11 11 12 13 14 14 13 12 11 8 7
4 2 3 5 4 1 5 3 6 2 3 4 2 1 4 4 6 1 1 1 1 1 2 2 2 1 2 3 3 4 5 5 6 6 6 5 4 4 2 1 3 2 3 5 5 6 4 3 4 4 4 5 5 3 2 3 4 3 3 4 2 3 3 3 4 4 4 4 3 5 4 4 5 6 7 7 6 6 6 9 10 11 10 9 9 10 11 12 13 13 13 12 12 11 7 6 7
1 3 2 2 6 1 4 4 4 5 2 5 3 1 2 1 2 1 2 4 0 3 4 1 2 3 3 0 2 3 5 4 5 6 6 4 3 3 3 2 1 1 2 2 4 4 5 4 4 2 4 4 3 4 3 1 3 4 4 4 5 4 3 3 4 4 5 4 4 4 4 4 4 4 7 11 8 6 5 6 8 11 10 9 11 8 9 11 12 12 12 10 7 5 6 6 6
0 3 3 3 4 2 1 3 3 3 4 4 3 0 2 1 2 1 3 4 4 6 7 8 11 9 8 4 2 4 5 5 4 5 6 4 3 1 2 2 2 0 1 3 2 4 5 5 4 3 4 2 3 3 3 2 3 4 4 4 5 4 4 3 3 3 6 5 5 4 4 4 4 4 5 5 5 5 5 5 4 5 5 5 7 6 5 6 6 6 6 7 6 6 6 6 6
3 1 1 2 2 1 2 3 3 4 2 7 1 4 3 1 1 3 7 5 6 7 5 9 5 9 11 9 5 4 5 6 5 5 6 6 6 4 1 0 1 1 2 1 3 4 4 4 4 4 4 2 1 2 3 3 2 4 4 4 4 4 4 4 3 3 3 4 4 4 4 5 4 5 5 6 6 6 5 5 4 5 5 4 5 6 5 6 6 6 6 6 6 6 6 6 6
1 2 0 2 2 1 1 1 4 4 3 4 3 3 2 1 1 2 6 7 4 2 4 4 6 9 7 5 6 6 6 6 6 6 5 5 4 3 3 1 1 0 1 2 2 3 4 4 4 4 3 2 3 2 2 2 2 4 4 4 5 4 4 3 3 3 4 4 4 4 5 5 4 5 5 5 5 5 5 5 5 4 5 5 4 6 5 5 5 6 6 6 6 6 6 6 7
6 2 0 0 2 4 4 2 4 2 10 5 4 1 3 3 4 1 3 5 3 3 2 3 5 7 7 8 5 7 6 6 5 3 3 4 5 4 3 3 1 1 1 2 3 3 4 5 4 3 4 2 3 0 1 2 2 0 5 5 4 5 5 4 3 3 4 4 2 1 3 3 5 6 6 5 5 3 3 2 2 5 4 4 4 5 5 4 5 5 5 6 7 7 7 6 7
2 1 1 1 1 2 0 0 1 1 1 0 5 4 3 5 2 1 5 6 0 2 4 6 7 7 5 6 6 6 5 4 4 3 1 1 2 1 0 1 0 0 1 2 3 4 4 4 3 3 3 3 2 2 3 4 4 3 6 5 6 4 6 4 4 3 5 4 3 4 2 3 2 5 5 4 5 5 4 4 3 4 4 4 5 5 5 5 5 6 6 6 6 7 7 7 7
1 0 2 0 1 2 0 0 1 2 1 2 3 3 2 3 2 3 7 4 3 3 5 5 6 6 6 6 6 6 6 6 4 4 4 2 1 3 1 1 0 1 1 3 3 4 4 4 3 3 2 4 4 3 4 5 4 6 7 4 7 4 5 5 5 4 3 4 4 5 5 4 1 5 5 5 6 6 6 5 5 5 4 4 4 5 5 5 6 6 6 6 7 6 7 7 8
2 2 2 1 0 2 0 4 3 1 1 2 4 2 1 2 2 8 0 4 4 5 5 3 6 7 5 5 4 4 7 7 7 4 3 1 1 3 3 1 1 3 2 3 3 3 4 3 2 2 0 2 3 5 5 5 5 6 6 5 4 5 5 5 5 5 5 4 5 5 6 5 5 5 5 6 6 6 5 5 5 5 5 5 5 5 6 6 6 7 7 7 7 7 7 6 8
3 1 0 0 6 2 1 1 4 0 2 5 5 3 1 1 1 9 3 4 5 8 5 4 4 5 4 4 5 4 4 4 3 5 7 5 6 4 3 4 3 2 2 2 3 3 3 3 3 2 1 1 5 6 6 6 6 6 6 7 4 5 6 6 6 5 4 5 5 6 6 5 6 6 7 5 7 6 6 6 6 7 6 6 6 6 7 6 7 7 8 7 7 8 7 7 7
0 0 1 5 6 3 0 5 2 3 3 4 4 1 3 1 7 5 3 4 4 6 6 5 5 4 4 4 4 4 4 4 3 4 5 5 4 3 4 3 3 3 3 3 3 2 2 3 3 3 2 2 6 7 6 6 6 5 6 7 5 3 6 7 6 5 5 6 5 6 7 7 6 6 6 7 7 7 7 7 7 7 6 6 7 7 7 6 7 7 8 6 7 7 8 8 8
0 5 1 4 6 4 1 0 0 5 2 4 2 4 7 9 12 2 1 8 4 4 5 5 5 4 4 4 4 4 3 4 5 6 4 4 4 4 3 3 2 3 2 2 1 1 2 2 2 3 5 5 6 7 6 6 7 6 5 7 5 4 4 7 7 6 5 6 5 7 8 7 7 6 7 8 7 8 7 7 8 7 6 7 7 5 7 6 8 8 8 8 7 8 7 7 9
1 1 3 0 3 4 1 1 2 5 1 4 1 4 8 7 6 3 4 6 11 9 8 7 6 5 4 4 4 5 5 4 5 5 4 3 3 3 3 2 2 3 2 0 2 2 3 3 3 4 5 6 7 7 7 7 7 7 6 7 4 4 5 6 7 6 5 5 5 7 7 7 7 7 7 8 7 8 8 7 7 6 5 6 7 6 7 7 8 8 6 9 8 8 7 7 9
2 2 3 4 3 5 7 2 6 5 0 0 2 2 10 10 7 2 5 5 5 9 8 7 7 6 6 5 6 6 6 4 4 4 4 4 3 3 3 4 2 2 2 2 2 3 4 3 4 5 6 8 8 7 6 6 9 6 5 5 5 7 6 4 7 6 6 6 6 7 7 7 7 7 7 7 9 7 8 8 7 7 6 7 7 7 7 8 8 7 5 5 10 8 9 9 8
5 1 4 1 0 5 9 0 2 0 2 1 5 7 4 5 3 2 3 5 5 5 6 7 8 8 7 7 6 5 4 4 4 4 4 4 3 3 4 3 3 3 3 3 4 4 4 5 5 6 7 7 8 8 8 8 10 7 5 6 7 7 4 4 5 6 6 7 5 7 6 7 7 7 7 7 9 8 7 8 6 7 6 7 7 7 7 5 7 8 6 5 7 9 10 10 8
3 2 3 3 2 2 2 5 1 1 3 4 2 2 7 5 2 1 2 5 5 7 9 9 8 7 7 6 6 7 7 6 8 6 5 4 4 5 3 3 3 3 2 2 4 5 5 5 4 5 5 6 6 7 7 6 8 7 5 7 6 7 5 3 3 6 8 6 6 6 6 7 7 7 7 7 8 7 7 8 7 7 7 7 7 7 7 6 6 7 9 6 5 8 8 10 9
3 2 1 6 1 4 5 1 1 4 1 3 1 4 10 13 7 4 6 6 7 11 12 8 7 7 7 8 8 8 7 9 9 6 5 5 5 4 3 3 3 3 3 3 5 5 5 5 5 6 6 6 7 8 8 8 9 8 5 8 8 6 5 4 6 8 7 6 6 6 7 7 7 7 7 7 9 8 8 8 8 6 6 7 8 8 8 7 8 7 11 9 8 7 7 7 8
3 7 6 3 2 3 3 6 3 6 4 5 5 8 11 13 14 8 6 7 10 12 6 5 7 8 9 9 9 9 9 10 5 5 5 4 4 4 3 3 2 3 4 4 6 6 6 6 5 5 5 5 6 7 6 6 7 7 6 7 8 6 5 6 7 7 7 7 6 6 7 7 6 6 6 7 8 8 8 7 8 6 6 8 9 9 7 6 9 11 9 11 11 9 7 6 5
4 3 2 4 4 6 4 4 4 1 0 7 9 9 9 10 11 12 4 4 6 8 10 11 9 10 11 11 12 11 10 10 5 6 6 6 6 5 4 3 4 3 3 5 6 6 6 6 7 6 5 5 6 6 6 5 9 8 3 6 8 4 4 6 7 7 7 6 6 6 7 6 6 7 6 7 8 8 8 8 8 7 7 8 9 8 6 7 6 7 7 6 9 10 6 5 3
1 1 2 5 2 7 4 1 1 1 4 4 4 6 10 13 12 12 1 5 10 13 14 14 14 13 12 13 13 13 9 2 5 5 5 4 4 5 5 5 6 6 4 5 7 7 7 7 7 8 6 5 4 5 5 4 3 4 6 7 7 5 5 6 5 5 5 5 7 7 6 6 6 6 6 7 8 8 8 8 8 7 7 8 9 7 6 6 6 5 7 8 5 6 4 4 4
1 3 2 2 7 4 10 7 2 1 2 9 6 7 10 10 11 10 7 11 10 12 14 18 17 15 13 12 13 10 6 8 7 7 6 7 7 7 6 6 6 6 6 7 6 7 7 6 6 7 6 5 4 4 4 5 6 6 6 6 4 6 6 5 6 6 6 6 5 6 6 6 6 7 6 6 7 7 8 8 7 6 7 7 9 8 7 8 6 6 5 9 8 4 5 5 6
3 1 1 8 3 0 6 1 2 0 4 3 0 5 9 9 9 13 14 12 11 10 11 15 12 15 16 16 15 14 14 11 13 12 10 8 8 8 7 7 7 5 5 5 6 7 6 6 6 6 5 4 5 5 6 7 8 10 10 7 6 7 6 4 8 6 7 9 8 6 7 6 6 7 6 6 7 7 8 9 7 7 7 5 8 9 8 7 6 6 6 5 7 6 4 7 6
4 6 5 3 4 7 8 5 3 1 2 2 5 8 10 8 14 10 10 4 6 11 8 11 12 12 10 6 6 11 15 15 13 10 10 10 11 11 10 8 7 7 7 7 7 7 5 7 6 6 6 6 5 7 8 9 11 9 8 10 9 11 8 7 8 7 6 5 6 8 6 6 6 7 6 6 7 8 7 7 8 7 7 6 6 9 8 7 6 5 5 6 5 8 5 3 7
3 7 11 10 7 7 5 3 4 6 4 3 2 7 6 5 10 13 6 3 3 7 8 15 16 10 8 10 13 8 8 9 15 16 15 13 12 10 9 8 8 8 8 6 6 7 7 7 7 7 6 6 7 7 9 8 9 13 12 11 8 7 8 5 7 8 7 6 7 3 6 5 5 6 6 6 7 7 8 7 7 8 8 7 7 8 7 7 7 7 5 6 7 4 9 5 4
3 6 10 12 9 6 3 1 2 3 4 1 1 3 12 2 7 6 6 4 11 7 7 15 13 10 8 12 9 10 11 10 7 8 9 11 12 11 10 10 10 9 7 6 5 6 7 7 7 7 7 7 7 8 9 7 7 6 8 10 11 12 12 3 3 4 6 5 5 6 5 5 4 6 6 6 6 7 7 7 8 8 8 7 6 8 8 7 6 6 4 7 5 4 5 7 7
4 2 4 6 5 5 6 4 6 6 1 4 1 2 6 16 6 6 10 9 8 9 14 16 13 9 9 9 8 9 11 12 13 14 13 11 13 14 14 11 10 9 7 6 6 6 8 8 8 8 7 7 7 8 8 6 8 8 8 8 6 6 8 11 7 6 4 5 7 6 6 5 5 4 6 6 6 6 8 7 8 8 9 6 7 8 8 6 7 5 6 6 6 6 6 8 4
4 0 6 5 6 5 2 3 3 0 3 9 1 0 4 8 3 3 3 3 6 13 17 15 10 8 9 8 9 9 11 13 14 14 15 15 14 13 11 11 9 8 7 8 7 7 7 7 7 8 8 8 8 7 7 5 5 7 9 10 8 5 7 8 7 5 6 5 8 5 6 6 6 5 5 6 5 6 6 8 8 8 8 7 7 7 6 6 7 8 7 7 8 6 5 4 7
2 5 8 7 7 6 3 3 2 2 1 8 5 3 3 19 3 3 2 3 7 11 15 14 7 6 7 9 9 8 7 8 10 12 12 11 11 11 9 8 8 7 7 6 6 7 8 8 8 8 8 8 8 8 6 5 5 7 9 9 13 10 7 6 6 8 6 5 8 6 6 6 5 6 5 4 6 5 7 6 7 8 8 7 7 7 7 8 7 7 6 7 7 9 5 6 7
7 4 7 6 8 4 3 6 2 2 6 9 8 10 7 13 1 8 8 7 9 11 7 8 4 4 4 6 7 9 9 9 9 9 8 9 7 9 9 11 9 7 7 8 8 8 8 8 9 9 8 7 7 7 6 7 7 6 7 12 15 15 10 11 9 7 7 5 8 6 6 6 5 6 5 5 5 5 6 5 7 7 6 6 7 7 7 8 7 8 7 8 8 9 7 8 8
6 2 4 4 3 6 4 4 4 1 8 2 8 12 11 12 3 5 6 3 4 7 8 9 6 6 6 5 6 8 8 9 8 8 8 9 7 9 9 10 10 9 8 9 8 8 8 8 9 9 8 8 7 6 6 6 6 6 5 8 14 15 15 11 12 12 9 9 9 8 6 6 5 5 5 6 5 4 6 6 5 6 6 7 7 6 7 7 7 7 7 7 7 6 6 8 7
3 5 7 6 4 5 3 3 2 6 9 0 3 1 4 19 11 2 7 10 8 9 9 9 7 7 6 5 7 7 7 8 10 10 9 10 11 12 12 11 10 10 10 11 10 9 8 8 10 11 10 9 8 7 7 7 7 7 8 7 8 11 12 12 11 11 8 10 9 9 8 8 6 7 5 7 5 5 6 7 7 7 6 6 7 7 6 7 7 7 7 7 6 6 5 7 7
5 8 8 7 0 1 4 5 2 7 6 3 1 1 9 2 7 10 17 19 12 6 8 8 7 8 7 6 6 7 8 9 10 10 10 11 12 12 12 12 12 10 11 11 11 10 9 8 9 11 10 9 8 7 7 7 6 7 7 8 9 10 10 10 9 11 9 8 8 10 9 9 9 9 8 7 6 5 4 5 5 6 6 6 6 7 6 5 6 7 7 7 6 5 6 7 8
12 3 12 11 9 7 4 6 6 7 4 2 5 2 8 4 5 2 9 5 5 5 6 5 6 6 5 3 5 5 7 8 9 11 12 13 13 13 13 12 12 11 11 11 10 10 9 9 9 10 9 6 8 9 7 7 7 7 7 7 8 7 9 9 8 7 8 9 7 8 7 6 7 7 7 5 4 5 5 5 5 7 6 6 6 7 6 6 6 7 7 7 6 5 6 7 6
2 2 5 4 9 7 7 4 3 1 2 4 2 7 5 6 2 5 4 5 7 6 6 4 7 3 2 4 7 9 10 10 10 11 11 11 12 12 11 11 11 11 11 10 11 11 10 10 10 10 12 10 9 9 8 9 8 7 7 9 8 7 6 7 7 6 5 5 7 8 8 6 5 6 4 5 4 5 6 6 5 6 5 5 5 6 6 6 6 8 7 6 7 2 7 8 6
5 6 8 6 2 4 2 3 1 1 2 12 4 9 7 8 11 11 13 6 9 5 8 7 7 2 2 6 7 8 9 10 11 12 12 12 10 10 11 13 11 11 11 11 11 12 12 11 10 10 9 7 9 10 10 9 9 9 8 8 8 7 8 10 10 9 7 5 5 5 7 6 5 5 6 4 5 4 4 4 5 5 4 4 5 5 5 5 5 7 7 7 7 4 6 6 5
9 4 8 2 2 3 3 6 2 3 5 8 4 10 8 1 14 3 2 5 11 8 13 9 4 3 7 9 8 9 10 10 8 7 6 10 11 13 11 10 12 13 13 11 11 11 11 11 12 12 11 12 8 9 10 10 10 9 9 8 7 8 8 7 7 9 7 7 5 5 6 7 6 6 6 5 5 5 4 4 5 4 3 4 4 4 4 5 6 7 6 6 5 5 7 5 5
6 6 5 8 4 3 2 3 5 1 5 7 5 3 11 11 12 2 2 7 9 14 13 6 12 10 11 7 6 5 5 6 9 10 10 11 12 12 12 12 10 10 11 11 11 10 10 10 10 13 15 13 12 9 9 9 10 9 8 9 9 8 6 7 6 7 7 8 8 7 7 7 7 6 7 7 6 5 5 4 5 5 4 4 4 4 3 4 5 7 6 7 5 5 6 6 4
2 3 4 1 3 1 6 8 2 5 5 1 10 7 17 6 8 9 9 11 10 9 6 10 14 14 8 7 7 9 10 10 10 11 11 12 12 12 13 13 13 12 12 11 11 10 12 12 12 9 8 9 10 10 10 11 9 9 9 7 7 6 6 7 8 9 8 8 8 8 8 8 8 7 6 7 6 6 6 7 6 6 5 4 5 4 4 5 5 6 6 7 5 6 6 5 4
1 2 4 1 1 1 4 1 4 4 4 4 6 11 8 4 6 9 10 11 10 9 10 9 11 7 5 8 10 10 10 11 11 12 12 12 11 11 10 10 10 9 8 10 11 13 12 11 12 11 13 11 11 11 11 11 10 9 10 11 10 8 9 8 8 7 8 8 7 7 7 6 7 7 7 8 7 7 7 7 7 6 6 5 6 5 4 5 6 6 5 6 5 5 6 4 5
13 15 15 15 10 5 4 7 2 1 2 7 2 14 11 3 3 7 7 5 7 5 3 9 8 3 5 7 8 9 10 9 8 8 8 9 9 9 9 8 8 9 10 11 11 11 12 13 12 11 11 12 13 11 11 10 9 10 10 10 9 7 8 7 8 8 7 8 7 7 6 6 7 6 6 7 7 6 6 7 7 6 6 5 5 6 4 4 6 6 5 4 6 6 5 4 4
Wind_Direction
316 317 320 334 51 99 43 359 150 335 61 349 23 15 201 47 208 56 119 340 64 307 316 31 37 43 178 167 143 139 188 124 206 126 216 236 274 287 317 192 184 125 131 129 133 137 137 153 153 137 136 131 130 128 125 123 119 117 117 113 110 106 103 102 100 96 96 95 94 94 96 94 93 92 89 86 80 71 64 59 55 52 51 53 54 55 55 54 56 58 58 59 56 53 54 55 54
300 319 5 340 309 46 236 119 97 3 39 63 246 94 247 303 58 178 142 148 200 108 132 85 69 63 70 102 117 102 43 47 179 204 271 240 306 360 341 178 162 148 142 130 138 141 146 159 119 145 140 134 136 134 130 128 121 119 119 117 111 105 102 103 102 100 99 96 96 97 97 99 98 94 90 84 79 73 67 61 56 54 54 55 56 57 58 57 57 58 58 58 57 58 59 60 58
318 6 14 33 13 77 90 31 245 38 92 103 274 204 333 218 173 210 205 130 135 156 119 88 92 73 27 8 31 62 191 56 14 268 241 329 38 340 354 46 169 147 146 137 140 148 144 145 167 163 145 140 139 138 134 129 123 119 119 117 113 110 107 105 104 100 97 99 99 99 101 103 100 97 91 83 78 74 69 66 62 59 58 59 59 59 60 61 61 61 62 61 61 62 63 62 58
12 32 157 66 245 30 55 32 83 124 112 199 280 274 222 186 201 191 222 204 221 197 256 26 53 272 107 66 115 86 44 1 142 232 359 348 154 271 322 336 115 137 134 146 144 145 147 159 166 160 147 146 142 136 134 130 125 123 119 120 118 114 112 111 110 107 106 105 105 104 105 103 101 99 93 86 81 79 76 71 66 62 62 61 61 62 62 63 62 63 64 64 65 65 67 65 64
68 348 91 109 112 5 103 108 137 103 123 199 166 267 259 208 206 218 272 252 247 187 163 137 72 340 113 117 328 127 223 288 319 164 263 265 283 284 305 304 126 147 152 148 147 143 159 157 163 160 150 151 144 139 135 132 124 122 117 118 119 117 114 114 114 113 110 109 107 109 110 108 106 100 93 88 84 82 78 71 66 64 63 64 65 64 64 64 64 66 67 68 69 69 68 68 64
58 45 6 89 53 158 60 72 52 83 220 148 126 233 221 212 197 202 309 36 60 124 150 71 157 178 21 350 173 82 275 52 297 307 154 281 331 310 291 214 139 154 155 147 150 151 166 169 145 167 151 157 147 142 139 139 123 121 122 120 124 121 115 113 114 112 110 108 108 110 111 111 106 98 92 89 85 80 76 71 66 65 63 65 67 67 66 64 66 66 68 71 73 72 74 69 67
239 53 357 27 24 47 172 123 156 166 216 160 201 197 198 210 227 125 140 37 4 51 2 141 128 92 66 309 356 165 223 247 2 280 203 290 309 306 279 158 145 153 152 146 146 154 175 169 155 173 157 163 148 146 146 146 131 128 134 136 132 130 121 118 116 113 112 112 110 111 110 109 103 98 95 92 89 82 75 71 68 64 64 64 64 65 65 64 64 65 67 72 76 78 69 68 68
54 136 314 95 322 48 46 175 148 173 8 177 228 179 202 213 195 145 148 102 243 89 25 107 37 101 261 28 189 275 337 154 247 285 293 304 320 330 146 151 149 156 154 134 145 158 175 175 166 164 157 161 155 153 153 152 142 138 142 144 142 140 136 130 125 121 118 116 115 115 114 111 108 104 103 99 91 80 73 68 67 64 64 65 67 67 65 63 61 62 64 70 75 72 64 66 71
358 88 316 69 50 24 57 69 224 216 295 214 282 226 258 197 158 127 60 264 88 52 136 256 251 78 225 41 134 278 291 321 323 287 338 1 358 319 153 151 150 147 142 135 134 147 168 189 173 173 155 183 161 159 161 157 146 145 145 145 147 146 142 135 130 125 124 123 121 119 118 117 114 113 109 100 92 85 77 71 67 65 64 63 64 65 66 66 62 59 61 65 70 62 61 63 68
34 52 267 109 135 58 29 321 87 193 235 234 191 256 196 178 171 103 145 72 128 87 322 339 123 114 136 123 325 342 296 334 306 350 1 359 346 356 97 141 145 143 131 128 130 141 153 197 200 169 162 175 170 163 164 162 152 153 148 152 152 148 142 136 131 128 126 125 124 125 125 122 120 117 110 103 97 89 81 74 69 66 62 60 61 61 62 61 63 63 62 64 63 61 60 61 64
2 15 137 73 37 112 154 214 268 320 269 327 309 251 228 156 139 107 341 137 327 148 193 148 41 133 97 243 201 251 305 330 45 341 323 346 2 18 45 49 93 131 142 133 133 130 150 186 190 178 162 166 168 167 163 162 162 157 154 157 158 147 135 135 127 124 126 127 128 129 131 129 126 123 119 111 102 92 83 76 70 65 62 61 61 60 60 60 61 64 65 63 63 62 61 61 62
33 26 9 101 152 153 223 158 217 256 300 338 202 277 239 160 122 101 141 108 103 51 117 100 198 150 69 20 286 272 322 8 348 271 317 347 31 18 39 52 53 59 87 120 115 108 144 153 180 181 169 170 173 173 147 162 153 155 156 160 158 148 139 132 129 134 132 131 131 134 138 134 135 131 122 112 104 95 85 78 73 66 63 62 62 62 61 62 63 65 66 66 66 64 62 62 62
114 101 87 78 187 108 174 114 203 277 342 260 175 228 117 125 181 166 148 111 22 118 13 289 148 90 122 194 258 315 56 274 321 320 351 25 28 31 49 52 48 43 28 49 77 66 107 131 158 176 190 173 168 157 142 140 140 159 156 157 161 151 133 129 130 141 138 139 141 140 138 138 140 135 125 115 106 99 93 85 78 73 69 66 66 65 65 65 67 67 67 67 68 68 67 66 65
116 178 121 128 49 120 133 181 347 158 254 233 272 282 200 142 237 167 134 87 311 106 210 313 108 136 93 49 267 271 245 256 320 53 41 41 48 49 56 55 53 51 33 40 44 36 46 10 359 222 198 181 173 166 183 156 143 127 136 160 150 148 142 141 139 140 142 141 141 143 140 140 140 120 116 110 102 96 96 92 88 83 81 79 76 73 71 69 70 70 68 67 69 70 71 70 69
102 140 81 115 76 92 243 128 198 159 219 165 202 48 89 342 112 114 137 122 209 229 303 7 146 113 225 146 264 205 212 225 111 99 70 56 50 56 52 56 60 54 37 33 33 35 27 16 3 312 195 193 162 165 199 189 166 131 105 107 138 158 150 150 141 146 148 143 137 138 138 140 130 109 108 104 101 99 98 97 98 93 90 88 85 79 76 74 74 73 71 70 70 71 71 72 72
139 84 84 100 164 131 225 127 37 102 244 171 272 220 82 349 48 104 234 154 171 333 13 207 5 191 293 153 245 198 179 163 136 99 79 63 51 48 44 40 49 36 35 7 34 28 19 18 358 324 33 10 150 185 205 183 192 155 115 95 97 139 157 153 147 147 151 143 139 139 133 123 108 111 111 109 109 111 113 114 104 97 95 93 88 84 78 76 76 75 74 71 68 66 65 65 67
53 82 58 42 157 156 219 151 146 190 244 253 280 233 127 224 277 101 103 69 102 346 32 337 279 23 131 192 295 308 359 139 115 94 80 58 53 44 30 29 11 39 16 15 29 19 3 360 349 344 32 13 10 314 182 180 184 164 128 97 89 86 115 155 138 134 134 130 132 131 128 118 113 118 116 119 116 119 127 118 106 102 100 97 92 88 82 78 77 77 76 71 64 57 48 48 48
55 65 114 70 191 133 201 171 189 207 141 220 198 190 112 155 322 188 52 37 75 21 57 317 3 25 276 287 335 324 128 129 129 108 94 78 50 61 60 358 3 24 356 346 7 18 6 342 341 345 7 9 360 329 212 176 144 177 153 135 120 97 101 113 128 128 135 125 136 141 141 132 128 130 128 130 128 130 132 123 115 105 103 98 95 92 87 81 80 80 77 72 68 64 58 53 47
89 121 87 185 193 225 146 205 197 120 240 170 201 131 141 200 141 230 109 306 51 70 353 21 4 343 26 29 8 76 112 123 122 118 119 118 111 122 107 6 28 355 7 354 336 347 358 324 339 354 334 343 350 354 304 158 142 174 162 174 155 115 114 115 107 128 120 130 135 140 142 142 141 141 143 146 144 134 131 130 122 113 110 103 92 87 88 84 79 78 75 70 64 60 59 59 57
190 109 87 245 205 235 207 184 198 209 133 144 151 167 153 223 140 146 206 177 46 195 184 310 229 227 208 273 53 82 106 110 119 126 123 114 111 135 128 108 42 360 316 312 308 311 333 348 332 320 329 337 351 340 323 168 156 186 169 177 166 161 137 137 148 164 134 146 155 133 142 152 144 137 143 137 124 122 123 116 119 114 105 95 89 78 74 75 73 68 65 60 55 54 63 62 61
251 69 160 204 184 112 241 169 238 213 156 144 136 115 135 240 207 151 168 107 260 259 221 172 200 197 196 195 150 119 121 120 116 124 124 117 96 99 163 172 158 259 263 291 317 322 328 326 327 323 335 319 349 341 320 331 198 184 179 173 166 163 160 149 157 170 143 155 165 152 150 152 144 132 141 141 137 135 139 136 128 116 111 100 90 82 80 81 77 73 62 56 48 48 56 57 64
84 59 215 173 125 57 227 204 160 142 176 104 111 125 202 99 56 115 149 170 227 213 228 212 196 173 170 173 176 133 132 138 141 142 149 148 150 147 168 279 296 285 294 9 317 315 317 312 300 305 309 316 331 277 289 285 312 202 175 169 162 159 167 163 149 157 113 144 163 152 157 163 152 135 147 151 145 144 146 150 139 130 108 100 94 94 80 85 79 79 75 66 55 50 46 51 56
78 318 321 208 200 145 239 168 211 147 117 121 151 214 82 125 214 203 173 195 230 248 255 230 177 168 156 129 139 137 145 151 160 160 155 149 147 156 172 196 157 51 337 316 287 296 301 308 306 301 293 301 264 246 263 266 223 204 178 158 162 133 135 125 108 119 120 109 148 177 165 176 152 150 159 154 143 149 152 156 150 117 120 108 86 99 87 83 89 87 84 82 69 58 47 43 54
104 171 316 268 188 206 171 198 148 168 123 196 203 74 166 134 222 141 211 246 256 329 25 143 126 121 133 136 165 156 159 161 167 164 178 165 159 168 176 168 211 251 1 316 318 305 302 301 296 301 290 273 265 188 87 27 29 72 143 108 80 111 108 107 103 106 106 99 93 103 172 167 169 165 164 148 133 122 101 71 81 109 110 111 107 104 101 87 84 80 79 68 70 61 54 40 51
86 83 224 255 149 257 258 70 156 149 173 126 115 138 229 174 185 89 246 240 146 55 85 101 115 118 124 138 153 149 142 141 142 144 96 146 165 154 280 269 241 38 307 305 297 313 299 298 301 303 282 244 202 136 100 86 79 58 75 101 89 73 99 88 93 80 102 98 65 69 52 148 173 138 139 127 128 118 101 88 60 79 101 105 112 101 97 93 77 73 68 72 69 69 63 53 58
149 198 146 336 298 330 358 50 258 205 129 121 102 233 294 242 306 245 236 200 175 112 91 113 120 128 153 164 162 159 158 161 152 153 168 177 180 130 179 197 140 201 260 277 296 293 296 296 301 311 259 185 147 118 101 95 91 81 73 52 104 75 82 91 77 65 58 87 68 61 60 46 46 134 129 131 133 120 109 98 76 67 62 75 81 93 90 90 91 80 73 72 74 69 68 65 72
136 152 170 166 336 352 329 195 244 230 229 204 180 230 233 351 130 269 343 191 133 109 120 134 142 161 169 164 169 172 162 174 173 155 122 154 202 175 199 219 222 229 283 278 297 294 294 314 324 333 282 175 129 111 100 97 94 94 90 66 62 96 88 67 84 69 48 57 73 71 68 68 77 69 84 108 94 96 91 90 86 82 61 54 71 77 76 78 82 85 80 81 80 75 68 68 79
38 132 224 330 335 254 221 318 268 62 271 171 179 229 272 304 100 234 211 188 164 145 158 167 168 170 175 174 177 184 180 182 168 155 169 177 195 188 193 182 217 253 247 265 271 293 310 324 348 9 23 115 109 106 99 101 91 90 93 87 66 70 90 84 58 68 63 53 56 74 67 69 72 72 88 81 96 95 89 82 74 77 77 69 63 71 76 77 80 79 77 75 81 81 73 68 73
266 19 329 301 356 351 225 206 236 159 246 154 159 338 272 181 231 244 255 148 161 156 171 184 188 193 187 183 174 179 192 189 183 192 198 195 188 189 187 213 208 226 242 234 276 299 339 356 353 13 45 62 103 101 93 96 87 89 95 90 72 69 88 81 73 59 63 60 57 72 73 71 68 83 79 89 90 86 90 91 84 78 80 85 78 79 87 88 80 76 69 65 66 75 84 83 79
128 36 93 333 356 328 306 255 30 152 241 156 165 273 262 242 238 269 167 150 127 147 192 204 206 201 199 187 187 196 210 186 203 214 209 208 195 202 202 208 247 230 238 259 262 15 3 13 12 44 51 62 82 89 94 85 81 84 76 85 67 75 83 93 84 66 64 68 64 69 75 71 81 78 94 86 89 93 86 86 97 91 89 88 90 83 80 73 83 78 79 76 72 78 77 84 90
160 255 61 224 5 273 281 115 167 150 194 171 81 213 280 269 281 262 183 167 162 189 205 210 210 209 205 203 196 203 216 208 209 214 219 210 208 210 223 191 247 252 276 193 78 74 52 34 33 65 69 78 85 89 86 90 83 74 76 83 95 95 73 89 96 77 69 71 73 72 74 77 78 83 87 101 93 96 94 90 83 87 94 99 91 83 93 80 82 81 83 93 90 88 86 81 86
18 44 284 324 156 277 294 251 171 163 321 325 108 275 252 272 267 268 185 182 177 199 206 213 214 210 209 207 208 210 215 219 238 223 213 209 197 206 214 203 224 239 224 154 115 78 65 39 54 88 76 94 83 80 74 87 81 65 76 91 96 66 59 83 95 98 90 80 76 80 79 82 85 88 96 102 104 101 105 101 101 105 101 94 92 93 90 89 89 84 54 93 104 95 95 81 80
351 119 267 259 83 265 336 6 274 107 116 356 171 221 329 307 305 313 174 178 197 210 224 223 220 217 212 211 212 212 214 233 234 223 215 204 215 212 217 214 209 196 194 164 133 101 93 83 74 84 95 92 93 90 86 83 85 74 65 75 81 81 68 64 86 99 91 82 79 80 80 84 86 91 95 100 104 108 106 105 104 99 96 90 88 85 80 83 96 97 73 45 89 107 97 96 86
293 21 218 204 186 259 263 303 267 257 137 200 257 221 238 241 293 19 201 188 192 223 233 227 222 220 218 216 215 212 212 205 211 206 212 206 205 212 221 217 199 168 178 166 133 123 123 108 84 94 96 95 100 99 94 86 91 81 65 67 63 81 78 68 88 90 82 78 73 79 80 81 81 86 89 94 93 91 92 95 91 87 89 88 85 82 79 73 74 91 89 52 60 97 99 101 98
211 199 284 293 260 207 247 326 259 127 347 188 212 234 264 269 267 213 210 192 198 224 224 227 225 225 222 219 216 215 212 211 213 200 199 202 201 202 206 200 177 157 153 147 125 121 115 107 104 98 105 113 112 105 97 91 95 87 74 76 68 71 78 72 69 72 72 74 70 76 81 82 79 82 89 96 99 97 93 88 87 82 88 91 89 81 77 78 81 81 97 88 66 63 91 94 107
188 169 185 178 216 238 204 239 274 177 190 230 204 218 241 258 269 257 208 198 205 230 250 259 230 225 227 222 220 213 213 220 199 198 196 197 198 193 196 182 174 160 153 149 134 128 121 121 117 108 125 126 109 113 117 110 96 101 101 91 70 65 66 71 62 68 70 70 66 71 78 82 81 84 85 90 95 96 95 88 85 78 84 91 90 88 81 84 99 96 87 102 95 76 59 68 93
108 103 124 215 221 279 281 272 263 282 58 229 222 231 239 253 255 262 213 182 232 244 244 239 233 223 222 222 218 216 212 213 183 188 190 194 195 193 202 179 163 152 172 157 144 143 146 144 141 134 144 140 130 132 132 135 124 106 51 85 100 74 60 71 74 70 66 61 64 68 72 78 80 83 79 90 93 94 92 94 93 83 86 87 86 86 92 89 79 96 98 73 99 99 56 20 18
184 140 181 269 162 250 240 257 360 333 173 293 250 241 248 248 257 261 216 164 228 225 231 238 234 226 223 218 220 214 209 108 156 183 199 202 194 191 196 183 160 158 186 169 158 158 151 149 148 142 148 156 136 134 132 107 75 107 129 117 114 94 83 84 75 52 58 62 61 64 65 67 72 75 80 90 94 98 102 99 93 94 93 89 88 91 84 80 88 93 113 80 26 86 66 4 343
79 198 228 276 265 250 278 267 276 263 122 256 270 256 256 252 252 263 237 219 231 222 217 225 222 226 225 219 220 208 173 191 180 189 184 192 187 186 191 184 178 175 173 167 162 151 151 150 147 147 149 146 117 94 99 101 102 102 109 109 97 96 58 70 70 71 68 64 43 52 62 67 77 75 74 80 93 93 97 96 92 93 87 101 98 82 77 73 68 75 75 114 102 61 87 31 16
187 142 161 235 233 88 292 301 10 230 175 266 6 306 277 277 260 250 246 223 234 235 228 237 225 225 222 216 207 199 197 182 188 185 187 186 181 184 188 187 179 165 171 161 160 159 153 149 152 147 135 117 106 94 96 91 94 95 86 82 77 82 104 79 73 64 68 58 54 50 45 62 66 78 72 82 88 88 94 96 98 87 79 74 98 99 85 77 70 68 79 74 109 90 50 35 18
238 200 208 229 208 230 193 252 318 292 335 43 318 287 276 240 261 264 254 251 240 254 245 253 247 235 236 233 217 204 197 187 181 180 184 184 183 189 188 183 167 171 176 172 166 164 157 154 147 140 136 131 115 116 119 122 114 94 94 90 93 96 77 81 86 57 41 52 72 35 29 55 71 79 80 82 92 94 89 93 93 90 87 77 90 92 86 88 80 78 78 81 65 121 96 103 28
278 227 199 214 214 231 261 322 356 3 328 346 63 319 277 257 236 245 272 358 267 255 236 248 244 232 222 220 217 197 202 187 184 184 183 182 182 179 183 181 175 173 178 176 167 157 147 144 139 132 128 131 132 124 135 140 138 134 132 126 120 111 112 114 120 129 122 97 93 90 64 56 74 83 81 87 89 94 92 92 96 97 91 84 82 89 96 86 73 75 57 94 84 58 123 110 81
206 270 196 213 213 216 230 242 87 293 243 292 36 228 285 235 254 239 255 239 251 271 240 250 249 235 215 224 210 192 187 180 183 181 179 180 183 178 183 186 178 175 176 160 156 152 143 140 142 142 137 136 136 142 147 142 136 137 134 137 142 143 132 88 72 63 107 102 97 90 83 62 58 88 81 85 89 92 95 95 96 95 94 91 90 90 82 80 75 69 64 76 81 114 116 101 112
232 253 177 194 186 196 219 176 188 238 258 297 44 120 270 293 258 212 213 221 253 277 266 252 245 238 225 224 206 195 189 185 182 184 185 186 180 181 183 182 177 176 158 153 154 150 147 144 140 136 132 137 145 152 155 160 150 146 131 118 111 120 134 137 134 120 98 111 101 94 91 75 64 66 90 84 91 98 103 97 98 94 92 89 92 90 100 103 95 77 78 87 81 68 88 115 99
217 264 147 163 183 197 138 153 195 220 25 285 309 359 317 251 275 331 155 207 264 254 253 259 248 229 228 220 210 201 193 189 181 179 185 185 182 182 179 177 173 156 158 160 158 151 138 137 139 140 143 148 155 161 157 156 154 146 137 129 110 78 102 115 120 112 116 117 104 94 92 87 77 64 71 92 90 97 97 103 101 102 102 100 100 102 100 104 105 108 99 84 85 70 69 96 101
251 123 87 81 78 67 104 95 105 317 34 257 196 190 213 277 205 143 347 172 231 243 249 254 263 234 218 216 213 198 188 186 188 188 180 181 181 177 175 162 161 164 156 148 143 143 146 144 146 148 151 156 161 162 154 139 138 143 139 135 126 124 121 110 119 126 124 129 111 108 100 98 96 87 76 79 90 89 99 103 104 107 110 113 110 115 114 103 99 94 95 102 104 93 77 87 102
131 90 73 28 41 32 25 62 79 20 262 250 189 204 161 279 182 185 144 198 201 231 269 276 297 292 258 231 205 189 185 184 183 178 180 178 175 167 164 169 167 150 146 149 149 152 154 153 153 155 157 155 160 157 150 148 143 149 148 148 139 138 143 139 135 130 131 131 123 120 117 111 101 102 99 84 92 106 103 105 112 113 116 119 116 115 111 109 106 103 101 95 93 106 107 104 95
133 106 120 61 345 12 35 343 37 121 267 199 201 188 183 225 284 268 238 278 251 211 232 260 279 264 246 217 207 193 182 179 172 166 169 166 162 167 168 169 164 159 151 154 156 155 157 157 156 152 152 158 161 153 144 144 144 143 148 154 145 146 148 153 149 149 156 144 137 134 132 117 110 108 108 113 112 115 116 114 115 114 113 114 108 112 112 113 113 109 106 105 105 103 108 103 106
85 97 92 126 246 34 288 24 258 199 239 333 8 104 352 240 243 236 266 259 257 225 223 238 249 263 252 227 204 187 176 170 174 173 167 172 174 171 177 171 163 167 168 165 163 161 160 160 163 159 166 164 163 154 154 151 147 152 153 154 148 146 148 151 151 147 160 148 148 142 145 137 141 130 146 133 147 145 136 126 125 123 117 113 119 113 113 115 113 109 109 103 105 108 111 110 104
144 154 153 126 134 215 262 270 266 305 295 282 336 86 252 316 287 219 247 246 237 240 230 236 234 244 242 219 193 180 181 180 177 173 176 178 178 176 178 172 172 172 172 170 165 164 164 164 168 166 167 166 153 149 150 151 153 152 154 154 154 152 152 153 157 152 160 154 154 151 153 153 155 155 155 155 156 145 118 117 118 111 113 116 116 115 115 114 114 110 109 106 104 108 104 100 103
201 113 161 185 154 157 211 202 213 229 228 285 278 121 234 117 244 256 249 308 310 257 251 245 255 258 266 222 176 173 178 186 178 178 182 181 181 177 177 175 175 175 173 170 167 168 165 166 169 165 155 165 157 154 151 154 151 150 152 155 155 157 155 154 154 155 156 155 160 150 151 151 148 155 153 145 140 126 118 114 117 118 123 122 122 118 113 108 107 102 100 106 102 109 105 105 103
215 168 57 99 215 144 229 199 177 251 327 333 205 212 192 195 245 295 242 282 291 267 281 281 265 268 206 158 181 189 190 184 184 183 182 185 181 179 176 177 176 175 173 171 170 168 169 169 169 167 164 164 165 157 162 158 157 153 153 157 164 158 151 142 139 143 153 156 154 152 150 148 141 134 128 130 131 129 129 123 118 121 123 124 122 121 121 117 118 112 108 109 106 102 107 99 105
205 110 203 208 158 126 76 29 42 110 36 255 140 276 272 304 274 234 244 249 267 299 279 261 258 260 202 210 198 198 193 187 188 190 186 180 178 185 183 177 175 174 175 177 175 172 169 164 165 161 160 163 170 168 160 159 156 157 162 161 159 160 161 161 159 158 156 149 144 142 141 137 128 132 133 128 126 110 110 116 119 117 115 114 111 109 115 117 116 111 114 111 105 101 95 101 103
98 187 226 118 109 106 148 226 347 67 211 271 135 242 284 50 282 353 48 243 259 270 263 250 275 232 216 218 204 197 196 194 191 189 187 184 182 181 183 183 179 178 176 174 175 171 169 168 167 163 163 169 179 168 161 160 161 164 161 164 167 166 164 155 151 154 151 143 139 133 130 138 150 145 134 128 117 112 105 103 107 96 87 86 97 102 110 116 109 96 99 90 101 106 99 90 94
147 195 189 129 237 246 290 96 258 217 256 274 281 235 261 196 248 77 197 202 242 249 256 281 266 237 229 219 215 203 187 179 182 185 183 186 186 185 181 182 182 178 176 174 168 167 165 167 174 169 170 175 170 170 168 167 167 163 167 166 166 163 162 151 145 146 149 151 154 155 156 148 133 136 133 130 125 125 122 109 111 104 95 96 88 90 93 95 102 106 100 104 95 95 99 101 99
47 80 105 66 98 173 139 199 179 119 257 49 277 95 265 146 223 186 220 201 217 237 262 250 249 246 219 208 202 198 195 194 188 189 191 187 187 185 182 179 179 179 177 174 168 168 172 171 170 174 168 165 166 170 169 169 170 161 159 154 159 159 156 154 156 156 158 161 162 158 152 151 151 138 136 133 137 143 141 132 123 120 115 110 106 96 106 109 103 106 115 111 111 106 105 111 108
156 134 187 171 35 246 113 7 142 169 182 188 278 295 261 235 199 183 202 202 216 212 232 248 255 258 211 205 198 199 199 194 193 192 188 186 185 184 185 182 179 174 174 171 174 178 177 172 175 171 168 170 175 175 171 172 163 164 161 165 163 161 161 156 158 164 158 159 160 157 158 150 135 146 146 147 151 151 143 134 130 131 133 132 129 125 121 114 107 108 101 111 113 109 112 110 108
185 180 192 180 141 146 151 250 58 131 142 244 151 258 277 260 177 198 194 222 221 235 241 273 280 298 214 211 209 203 199 200 195 193 184 184 184 182 181 180 175 173 179 179 178 177 180 180 178 172 171 175 175 178 177 167 168 161 167 164 162 159 155 156 160 161 160 159 160 157 150 140 150 149 153 153 151 147 139 136 134 134 134 131 109 89 96 114 119 118 115 114 118 116 114 116 112